Hourly Data Report for October 08, 2015

All times are specified in Local Standard Time (LST). Add 1 hour to adjust for Daylight Saving Time where and when it is observed.

MONCTON INTL A
NEW BRUNSWICK

46°06'44.000" N
64°40'43.000" W
70.70 m
8103201
71705
YQM

Download Data

Hourly Data (October 2015)
Hourly Data Report for October 8, 2015
Temp Definition
°C
Dew Point Temp Definition
°C
Rel Hum Definition
%
Wind Dir Definition
10's deg

Wind Spd Definition
km/h
Visibility Definition
km
Stn Press Definition
kPa
Hmdx Definition


Wind Chill Definition


Weather Definition


TIME
00:00 Legend Double Dagger 9.2 7.2 87 22 13 24.1 100.05     LegendNANA
01:00 Legend Double Dagger 8.3 6.9 91 22 15 24.1 100.11     LegendNANA
02:00 Legend Double Dagger 8.0 6.9 93 24 12 24.1 100.18     Mainly Clear
03:00 Legend Double Dagger 7.9 6.7 92 22 13 24.1 100.23     LegendNANA
04:00 Legend Double Dagger 8.1 5.4 83 29 15 24.1 100.28     LegendNANA
05:00 Legend Double Dagger 7.3 3.7 78 28 19 24.1 100.35     Clear
06:00 Legend Double Dagger 5.4 3.1 85 25 14 24.1 100.44     LegendNANA
07:00 Legend Double Dagger 5.8 2.8 81 27 18 24.1 100.53     LegendNANA
08:00 Legend Double Dagger 7.1 2.8 74 26 14 24.1 100.59     Clear
09:00 Legend Double Dagger 8.5 1.7 62 30 25 24.1 100.66     LegendNANA
10:00 Legend Double Dagger 12.5 1.3 46 32 26 24.1 100.70     LegendNANA
11:00 Legend Double Dagger 10.8 1.7 53 27 17 24.1 100.70     Mainly Clear
12:00 Legend Double Dagger 11.5 2.0 52 29 6 24.1 100.69     LegendNANA
13:00 Legend Double Dagger 12.5 1.0 45 32 16 24.1 100.68     LegendNANA
14:00 Legend Double Dagger 13.0 1.7 46 29 16 24.1 100.67     Mostly Cloudy
15:00 Legend Double Dagger 13.0 1.1 44 29 13 24.1 100.67     LegendNANA
16:00 Legend Double Dagger 13.2 1.3 44 27 24 24.1 100.69     LegendNANA
17:00 Legend Double Dagger 11.8 1.8 50 28 16 24.1 100.76     Mostly Cloudy
18:00 Legend Double Dagger 9.4 1.6 58 28 11 24.1 100.83     LegendNANA
19:00 Legend Double Dagger 7.9 1.8 65 29 11 24.1 100.92     LegendNANA
20:00 Legend Double Dagger 6.9 0.8 65 29 13 24.1 100.95     Mainly Clear
21:00 Legend Double Dagger 5.8 0.8 70 25 9 24.1 101.01     LegendNANA
22:00 Legend Double Dagger 5.2 0.6 72 28 10 24.1 101.05     LegendNANA
23:00 Legend Double Dagger 4.2 2.1 86 22 10 24.1 101.06     Mostly Cloudy

Notes on Data Quality.

Legend

  • E = Estimated
  • M = Missing
  • NA = Not Available
  • ‡ = Partner data that is not subject to review by the National Climate Archives
Date modified: